(337391) = 2001 QR157

Discovered at Anderson Mesa on 2001-08-23 by LONEOS.

Orbit

Orbit type: Main Belt

Note: WebGL enabled browser required.

epoch2024-03-31.0
epoch JD2460400.5
perihelion date2023-09-15.90111
perihelion JD2460203.40111
argument of perihelion (°)219.73350
ascending node (°)169.69133
inclination (°)5.13744
eccentricity0.2896306
perihelion distance (AU)2.1806029
Tisserand w.r.t. Jupiter3.2
ΔV w.r.t. Earth (km/sec)9.5
semimajor axis (AU)3.0696745
mean anomaly (°)36.12015
mean daily motion (°/day)0.18325900
aphelion distance (AU)3.959
period (years)5.38
P-vector [x]0.87054152
P-vector [y]0.47119199
P-vector [z]0.14189987
Q-vector [x]-0.49183400
Q-vector [y]0.82373110
Q-vector [z]0.28207514
absolute magnitude15.94
phase slope0.15
uncertainty0
referenceMPEC 2024-C115
observations used438
oppositions12
arc length (days)8213
first opposition used2001
last opposition used2024
residual rms (arc-secs)0.67
perturbers coarse indicatorM-v
perturbers precise indicator003Ek
first observation date used2001-08-16.0
last observation date used2024-02-10.0
computer nameMPCLINUX
JD of orbit computation2456760.898057
perihelion JD uncertainty (days)1.1913E-04
argument of perihelion uncertainty (°)8.2216E-05
ascending node uncertainty (°)7.5316E-05
inclination uncertainty (°)9.6256E-06
eccentricity uncertainty 8.8525E-08
perihelion distance uncertainty (AU)2.7069E-07
Minimum Orbit Intersection Distances (in AU)
for orbit epoch: 2460400.5, reference: E2024-FB1
Mercury1.84876
Venus1.45629
Earth1.18867
Mars0.74578
Jupiter1.49342
Saturn5.74277
Uranus14.6256
Neptune26.7035

Observations

444 total observations over interval: 2001 08 16.28807 – 2024 02 10.291352
These data are available for download (format description).

Date (UT) J2000 RA J2000 Dec Magn Location Ref
2001 08 16.28807 22 32 29.60 -06 19 03.2 19.3   704 – Lincoln Laboratory ETS, New Mexico MPS 34757
2001 08 16.30039 22 32 29.13 -06 19 08.2 19.3   704 – Lincoln Laboratory ETS, New Mexico MPS 34757
2001 08 16.32486 22 32 28.18 -06 19 17.5 19.5   704 – Lincoln Laboratory ETS, New Mexico MPS 34757
2001 08 23.27193 22 27 48.61 -07 01 54.6 18.5 R 699 – Lowell Observatory-LONEOS MPS 34757
2001 08 23.29531 22 27 47.50 -07 02 03.8   699 – Lowell Observatory-LONEOS MPS 34757
2001 08 23.31869 22 27 46.50 -07 02 13.1   699 – Lowell Observatory-LONEOS MPS 34757
2001 08 23.34212 22 27 45.42 -07 02 21.9   699 – Lowell Observatory-LONEOS MPS 34757
2001 08 27.23962 22 24 58.71 -07 28 00.0 18.0 R 699 – Lowell Observatory-LONEOS MPS 34757
2001 08 27.26311 22 24 57.61 -07 28 08.6   699 – Lowell Observatory-LONEOS MPS 34757
2001 08 27.28674 22 24 56.60 -07 28 18.2   699 – Lowell Observatory-LONEOS MPS 34757
2001 08 27.31018 22 24 55.60 -07 28 28.6   699 – Lowell Observatory-LONEOS MPS 34757
2001 09 07.19433 22 17 07.85 -08 42 18.1 18.6   704 – Lincoln Laboratory ETS, New Mexico MPS 34757
2001 09 07.20817 22 17 07.23 -08 42 23.3 18.8   704 – Lincoln Laboratory ETS, New Mexico MPS 34757
2001 09 07.22198 22 17 06.60 -08 42 28.6 19.0   704 – Lincoln Laboratory ETS, New Mexico MPS 34757
2001 09 07.23585 22 17 06.03 -08 42 33.8 19.2   704 – Lincoln Laboratory ETS, New Mexico MPS 34757
2001 09 07.24972 22 17 05.45 -08 42 39.5 18.9   704 – Lincoln Laboratory ETS, New Mexico MPS 34757
2001 09 12.26539 22 13 45.55 -09 15 48.9 19.0   704 – Lincoln Laboratory ETS, New Mexico MPS 34757
2001 09 12.27988 22 13 44.91 -09 15 54.4 19.5   704 – Lincoln Laboratory ETS, New Mexico MPS 34757
2001 09 12.29435 22 13 44.36 -09 15 59.4 19.4   704 – Lincoln Laboratory ETS, New Mexico MPS 34757
2001 09 12.30895 22 13 43.76 -09 16 05.4 19.0   704 – Lincoln Laboratory ETS, New Mexico MPS 34757
2001 09 12.32344 22 13 43.20 -09 16 10.7 19.5   704 – Lincoln Laboratory ETS, New Mexico MPS 34757
2001 09 19.19656 22 09 44.72 -09 58 27.7 20.2   704 – Lincoln Laboratory ETS, New Mexico MPS 36056
2001 09 19.21076 22 09 44.18 -09 58 33.8 19.4   704 – Lincoln Laboratory ETS, New Mexico MPS 36056
2001 09 19.22496 22 09 43.72 -09 58 38.9 19.0   704 – Lincoln Laboratory ETS, New Mexico MPS 36056
2001 09 19.23914 22 09 43.26 -09 58 43.3 19.2   704 – Lincoln Laboratory ETS, New Mexico MPS 36056
2001 09 21.18044 22 08 45.58 -10 09 47.0 19.1   704 – Lincoln Laboratory ETS, New Mexico MPS 36056
2001 09 21.19466 22 08 45.09 -10 09 50.7 19.7   704 – Lincoln Laboratory ETS, New Mexico MPS 36056
2001 09 21.20889 22 08 44.71 -10 09 55.6 19.6   704 – Lincoln Laboratory ETS, New Mexico MPS 36056
2001 09 21.22326 22 08 44.27 -10 10 00.2 19.5   704 – Lincoln Laboratory ETS, New Mexico MPS 36056
2001 09 21.23750 22 08 43.82 -10 10 05.0 19.2   704 – Lincoln Laboratory ETS, New Mexico MPS 36056
2001 10 11.10538 22 04 11.57 -11 31 02.5 21.0   644 – Palomar Mountain/NEAT MPS 37819
2001 10 11.12668 22 04 11.61 -11 31 05.1 21.1   644 – Palomar Mountain/NEAT MPS 37819
2001 10 11.14915 22 04 11.61 -11 31 08.6 20.4   644 – Palomar Mountain/NEAT MPS 37819
2002 12 09.45176 08 45 08.36 +12 08 45.7 21.5 V 291 – LPL/Spacewatch II MPS 71406
2002 12 09.46596 08 45 08.22 +12 08 45.4 21.6 V 291 – LPL/Spacewatch II MPS 71406
2002 12 09.47483 08 45 08.10 +12 08 44.8 21.6 V 291 – LPL/Spacewatch II MPS 71406
2003 01 27.24267 08 13 28.27 +14 12 35.6 19.2   704 – Lincoln Laboratory ETS, New Mexico MPS 71406
2003 01 27.25809 08 13 27.48 +14 12 39.1 19.5   704 – Lincoln Laboratory ETS, New Mexico MPS 71406
2003 01 27.27346 08 13 26.72 +14 12 43.7 20.0   704 – Lincoln Laboratory ETS, New Mexico MPS 71406
2003 01 27.29655 08 13 25.40 +14 12 49.5 19.1   644 – Palomar Mountain/NEAT MPS 71406
2003 01 27.30426 08 13 25.12 +14 12 51.2 19.9   704 – Lincoln Laboratory ETS, New Mexico MPS 71406
2003 01 27.35854 08 13 22.23 +14 13 04.7 19.7   644 – Palomar Mountain/NEAT MPS 71406
2003 01 27.42779 08 13 18.56 +14 13 22.5 19.8   644 – Palomar Mountain/NEAT MPS 71406
2007 10 13.36164 05 20 58.43 +16 24 55.8 20.3   704 – Lincoln Laboratory ETS, New Mexico MPS 220233
2007 10 13.37305 05 20 58.74 +16 24 54.7 20.9   704 – Lincoln Laboratory ETS, New Mexico MPS 220233
2007 10 13.39553 05 20 59.29 +16 24 49.6 20.6   704 – Lincoln Laboratory ETS, New Mexico MPS 220233
2007 10 13.40677 05 20 59.54 +16 24 47.9 20.4   704 – Lincoln Laboratory ETS, New Mexico MPS 220233
2007 11 04.37518 05 22 18.40 +15 15 12.4 19.4   704 – Lincoln Laboratory ETS, New Mexico MPS 224624
2007 11 04.38726 05 22 18.15 +15 15 09.9 19.8   704 – Lincoln Laboratory ETS, New Mexico MPS 224624
2007 11 04.41146 05 22 17.68 +15 15 04.9 19.8   704 – Lincoln Laboratory ETS, New Mexico MPS 224624
2007 11 04.42355 05 22 17.44 +15 15 03.9 20.2   704 – Lincoln Laboratory ETS, New Mexico MPS 224624
2007 11 12.31399 05 18 59.92 +14 50 30.4 19.8   704 – Lincoln Laboratory ETS, New Mexico MPS 226708
2007 11 12.32632 05 18 59.51 +14 50 27.9 20.2   704 – Lincoln Laboratory ETS, New Mexico MPS 226708
2007 11 12.33857 05 18 59.08 +14 50 26.3 19.8   704 – Lincoln Laboratory ETS, New Mexico MPS 226708
2007 11 12.35087 05 18 58.61 +14 50 23.6 20.2   704 – Lincoln Laboratory ETS, New Mexico MPS 226708
2007 11 12.36322 05 18 58.18 +14 50 21.9 20.1   704 – Lincoln Laboratory ETS, New Mexico MPS 226708
2007 11 21.26022 05 13 15.67 +14 25 36.3 18.7 V 703 – Catalina Sky Survey MPS 228929
2007 11 21.26449 05 13 15.42 +14 25 33.9 19.1 V 703 – Catalina Sky Survey MPS 228929
2007 11 21.26891 05 13 15.20 +14 25 33.1 18.9 V 703 – Catalina Sky Survey MPS 228929
2007 11 21.27319 05 13 15.06 +14 25 33.4 19.5 V 703 – Catalina Sky Survey MPS 228929
2007 12 05.21605 05 01 38.76 +13 57 08.6 18.8 r 699 – Lowell Observatory-LONEOS MPS 229697
2007 12 05.23525 05 01 37.70 +13 57 06.0 18.9 r 699 – Lowell Observatory-LONEOS MPS 229697
2007 12 05.25443 05 01 36.61 +13 57 04.9 18.6 r 699 – Lowell Observatory-LONEOS MPS 229697
2007 12 05.27364 05 01 35.57 +13 57 03.1 18.7 r 699 – Lowell Observatory-LONEOS MPS 229697
2007 12 15.26894 04 52 53.90 +13 47 37.1 18.5 V 703 – Catalina Sky Survey MPS 231714
2007 12 15.27540 04 52 53.72 +13 47 37.2 18.5 V 703 – Catalina Sky Survey MPS 231714
2007 12 15.28189 04 52 53.40 +13 47 36.6 18.2 V 703 – Catalina Sky Survey MPS 231714
2007 12 15.28836 04 52 53.11 +13 47 37.9 18.8 V 703 – Catalina Sky Survey MPS 231714
2007 12 19.27397 04 49 41.05 +13 46 50.0 18.8 V G96 – Mt. Lemmon Survey MPS 231714
2007 12 19.28252 04 49 40.65 +13 46 50.0 18.8 V G96 – Mt. Lemmon Survey MPS 231714
2007 12 19.29112 04 49 40.22 +13 46 49.9 18.9 V G96 – Mt. Lemmon Survey MPS 231714
2007 12 19.29968 04 49 39.82 +13 46 50.0 18.8 V G96 – Mt. Lemmon Survey MPS 231714
2007 12 31.24883 04 41 51.68 +13 54 56.4 19.1 V 703 – Catalina Sky Survey MPS 232552
2007 12 31.25618 04 41 51.39 +13 54 57.2 19.5 V 703 – Catalina Sky Survey MPS 232552
2007 12 31.26350 04 41 51.21 +13 54 58.0 19.5 V 703 – Catalina Sky Survey MPS 232552
2007 12 31.27085 04 41 50.89 +13 54 57.6 19.2 V 703 – Catalina Sky Survey MPS 232552
2012 08 10.26370 00 29 18.19 +03 21 21.5 19.8 G G45 – Space Surveillance Telescope, Atom Site MPS 1609714
2012 08 10.27705 00 29 18.38 +03 21 20.7 20.3 G G45 – Space Surveillance Telescope, Atom Site MPS 1609714
2012 08 10.30720 00 29 18.81 +03 21 18.9 20.2 G G45 – Space Surveillance Telescope, Atom Site MPS 1609714
2012 08 10.41331 00 29 20.16 +03 21 12.4 20.4 G G45 – Space Surveillance Telescope, Atom Site MPS 1609714
2012 08 26.54850 00 29 57.596 +02 38 05.21 19.3 w F51 – Pan-STARRS 1, Haleakala MPS 430022
2012 08 26.56255 00 29 57.427 +02 38 01.65 19.2 w F51 – Pan-STARRS 1, Haleakala MPS 430022
2012 08 26.57663 00 29 57.254 +02 37 58.04 19.2 w F51 – Pan-STARRS 1, Haleakala MPS 430022
2012 09 09.96444 00 25 12.44 +01 18 35.1 19.4 V A50 – Andrushivka Astronomical Observatory MPS 431313
2012 09 09.98106 00 25 11.94 +01 18 28.7 19.6 V A50 – Andrushivka Astronomical Observatory MPS 431313
2012 09 09.99763 00 25 11.44 +01 18 22.1 19.5 V A50 – Andrushivka Astronomical Observatory MPS 431313
2012 09 10.95581 00 24 43.39 +01 11 57.8 19.3   A14 – Les Engarouines Observatory MPS 431313
